Jacksonville, TX

8:24 AM CDT on May 26, 2017 (GMT -0500)
Cherokee County

Weather History for KJSO - May, 2013

Change the Weather History Date:

Sunday, May 5, 2013

  Actual Average (KOCH) Record (KOCH)
Temperature  
Mean Temperature 52 °F -  
Max Temperature 63 °F 80 °F 89 °F (2012)
Min Temperature 42 °F 59 °F 37 °F (2013)
Degree Days  
Heating Degree Days 12    
Growing Degree Days 2 (Base 50)    
Moisture  
Dew Point 38 °F    
Average Humidity 59    
Maximum Humidity 85    
Minimum Humidity 36    
Precipitation  
Precipitation 0.00 in - - ()
Sea Level Pressure  
Sea Level Pressure 30.07 in    
Wind  
Wind Speed 6 mph (NNW)    
Max Wind Speed 13 mph    
Max Gust Speed 20 mph    
Visibility 10 miles    
Events Thunderstorm    
Averages and records for this station are not official NWS values.
T = Trace of Precipitation, MM = Missing Value Source: NWS Daily Summary

Daily Weather History Graph

Daily Weather History Graph

Search for Another Location

Airport or City:

Trip Planner

Search our weather history database for the weather conditions in past years. The results will help you decide how hot, cold, wet, or windy it might be!

Date:

Astronomy

May. 05, 2013 Rise Set
Actual Time 6:31 AM CDT 8:04 PM CDT
Civil Twilight 6:05 AM CDT 8:30 PM CDT
Nautical Twilight 5:33 AM CDT 9:01 PM CDT
Astronomical Twilight 5:00 AM CDT 9:34 PM CDT
Moon 3:47 AM CDT (5/5) 4:17 PM CDT (5/5)
Length of Visible Light 14h 25m
Length of Day
13h 32m
Waning Crescent, 18% of the Moon is Illuminated
May 5
Waning Crescent
May 9
New
May 17
First Quarter
May 24
Full
May 31
Last Quarter

Hourly Weather History & Observations

Time (CDT) Temp. Windchill Dew Point Humidity Pressure Visibility Wind Dir Wind Speed Gust Speed Precip Events Conditions
12:15 AM 50.5 °F - 34.7 °F 55% 30.01 in 10.0 mi North 5.8 mph - N/A   Clear
12:35 AM 50.0 °F - 34.9 °F 56% 30.01 in 10.0 mi NNE 5.8 mph - N/A   Clear
12:55 AM 49.6 °F - 35.4 °F 58% 30.01 in 10.0 mi North 4.6 mph - N/A   Clear
1:15 AM 48.7 °F - 35.8 °F 61% 30.01 in 10.0 mi North 5.8 mph - N/A   Clear
1:35 AM 47.7 °F - 36.1 °F 64% 30.01 in 10.0 mi North 4.6 mph - N/A   Clear
1:55 AM 47.3 °F - 36.5 °F 66% 30.01 in 10.0 mi North 4.6 mph - N/A   Clear
2:15 AM 47.3 °F - 36.1 °F 65% 30.01 in 10.0 mi North 4.6 mph - N/A   Clear
2:35 AM 46.6 °F - 36.0 °F 67% 30.01 in 10.0 mi North 4.6 mph - N/A   Clear
2:55 AM 46.0 °F 44.8 °F 36.1 °F 68% 30.01 in 10.0 mi North 3.5 mph - N/A   Clear
3:15 AM 45.5 °F 44.2 °F 36.5 °F 71% 30.01 in 10.0 mi North 3.5 mph - N/A   Clear
3:35 AM 45.0 °F 42.6 °F 36.5 °F 72% 30.01 in 10.0 mi North 4.6 mph - N/A   Clear
3:55 AM 44.1 °F 42.5 °F 36.5 °F 75% 30.01 in 10.0 mi North 3.5 mph - N/A   Clear
4:15 AM 43.7 °F - 36.5 °F 76% 30.02 in 10.0 mi Calm Calm - N/A   Clear
4:35 AM 43.7 °F 42.1 °F 36.5 °F 76% 30.03 in 10.0 mi NNW 3.5 mph - N/A   Clear
4:55 AM 43.5 °F 41.9 °F 36.5 °F 76% 30.03 in 10.0 mi NW 3.5 mph - N/A   Clear
5:15 AM 43.5 °F 40.9 °F 36.7 °F 77% 30.04 in 10.0 mi NNW 4.6 mph - N/A   Clear
5:55 AM 42.8 °F 41.1 °F 37.8 °F 82% 30.05 in 10.0 mi NNW 3.5 mph - N/A   Clear
6:15 AM 42.8 °F 41.1 °F 38.3 °F 84% 30.05 in 10.0 mi NNW 3.5 mph - N/A   Clear
6:35 AM 42.8 °F 40.1 °F 38.3 °F 84% 30.06 in 10.0 mi NW 4.6 mph - N/A   Clear
6:55 AM 43.0 °F 39.5 °F 38.5 °F 84% 30.07 in 10.0 mi NW 5.8 mph - N/A   Clear
7:15 AM 43.0 °F 38.8 °F 38.7 °F 85% 30.07 in 10.0 mi NW 6.9 mph - N/A   Clear
7:35 AM 43.7 °F 41.1 °F 39.2 °F 84% 30.08 in 10.0 mi NW 4.6 mph - N/A   Clear
7:55 AM 44.8 °F 42.4 °F 39.7 °F 82% 30.09 in 10.0 mi NW 4.6 mph - N/A   Clear
8:15 AM 46.4 °F 43.5 °F 40.1 °F 79% 30.10 in 10.0 mi NW 5.8 mph - N/A   Clear
8:35 AM 47.7 °F - 40.6 °F 77% 30.10 in 10.0 mi NNW 6.9 mph - N/A   Clear
8:55 AM 48.9 °F - 40.1 °F 72% 30.11 in 10.0 mi NNW 9.2 mph 16.1 mph N/A   Clear
9:15 AM 50.0 °F - 38.8 °F 66% 30.12 in 10.0 mi North 8.1 mph - N/A   Scattered Clouds
9:35 AM 50.5 °F - 37.8 °F 62% 30.12 in 10.0 mi North 9.2 mph - N/A   Scattered Clouds
9:55 AM 51.8 °F - 36.9 °F 57% 30.12 in 10.0 mi North 10.4 mph 16.1 mph N/A   Scattered Clouds
10:15 AM 53.1 °F - 36.5 °F 53% 30.12 in 10.0 mi NW 11.5 mph 17.3 mph N/A   Mostly Cloudy
10:35 AM 53.4 °F - 36.7 °F 53% 30.12 in 10.0 mi North 8.1 mph 18.4 mph N/A   Mostly Cloudy
10:55 AM 52.2 °F - 36.3 °F 55% 30.13 in 10.0 mi NW 9.2 mph 17.3 mph N/A   Mostly Cloudy
11:15 AM 53.4 °F - 36.3 °F 52% 30.13 in 10.0 mi NNW 11.5 mph - N/A Thunderstorm Thunderstorm
11:35 AM 54.5 °F - 37.2 °F 52% 30.14 in 10.0 mi NNW 6.9 mph - N/A   Mostly Cloudy
11:55 AM 53.6 °F - 37.2 °F 54% 30.14 in 10.0 mi North 6.9 mph - N/A   Overcast
12:15 PM 55.6 °F - 37.2 °F 50% 30.14 in 10.0 mi North 6.9 mph - N/A   Overcast
12:35 PM 55.2 °F - 37.6 °F 52% 30.13 in 10.0 mi NW 8.1 mph 16.1 mph N/A   Mostly Cloudy
12:55 PM 55.6 °F - 37.6 °F 51% 30.13 in 10.0 mi NW 10.4 mph 17.3 mph N/A   Mostly Cloudy
1:15 PM 57.7 °F - 36.9 °F 46% 30.13 in 10.0 mi NNW 6.9 mph - N/A   Mostly Cloudy
1:35 PM 57.4 °F - 37.6 °F 48% 30.12 in 10.0 mi North 5.8 mph - N/A   Mostly Cloudy
1:55 PM 58.1 °F - 37.2 °F 46% 30.11 in 10.0 mi NW 10.4 mph 17.3 mph N/A   Mostly Cloudy
2:15 PM 59.2 °F - 37.9 °F 45% 30.11 in 10.0 mi NNW 6.9 mph 16.1 mph N/A   Mostly Cloudy
2:35 PM 60.3 °F - 37.6 °F 43% 30.10 in 10.0 mi NW 10.4 mph 16.1 mph N/A   Mostly Cloudy
3:15 PM 61.2 °F - 37.2 °F 41% 30.09 in 10.0 mi NW 9.2 mph 18.4 mph N/A   Scattered Clouds
3:35 PM 61.9 °F - 38.1 °F 41% 30.08 in 10.0 mi NW 8.1 mph - N/A   Scattered Clouds
3:55 PM 61.9 °F - 37.8 °F 41% 30.07 in 10.0 mi NW 12.7 mph 17.3 mph N/A   Scattered Clouds
4:15 PM 63.1 °F - 37.6 °F 39% 30.07 in 10.0 mi NW 6.9 mph 16.1 mph N/A   Clear
4:35 PM 63.0 °F - 36.9 °F 38% 30.06 in 10.0 mi NW 10.4 mph 19.6 mph N/A   Clear
4:55 PM 63.7 °F - 36.0 °F 36% 30.06 in 10.0 mi North 8.1 mph 16.1 mph N/A   Clear
5:15 PM 63.3 °F - 36.9 °F 37% 30.05 in 10.0 mi WNW 9.2 mph 17.3 mph N/A   Clear
5:35 PM 63.9 °F - 37.8 °F 38% 30.05 in 10.0 mi North 9.2 mph - N/A   Clear
5:55 PM 63.3 °F - 37.6 °F 39% 30.05 in 10.0 mi NNW 8.1 mph 16.1 mph N/A   Clear
6:15 PM 63.9 °F - 38.8 °F 40% 30.05 in 10.0 mi NW 6.9 mph - N/A   Clear
6:35 PM 63.0 °F - 38.5 °F 40% 30.05 in 10.0 mi NW 9.2 mph 16.1 mph N/A   Clear
6:55 PM 62.6 °F - 39.4 °F 42% 30.05 in 10.0 mi NW 8.1 mph - N/A   Clear
7:15 PM 62.2 °F - 39.9 °F 44% 30.05 in 10.0 mi NW 8.1 mph - N/A   Clear
7:35 PM 61.0 °F - 40.5 °F 47% 30.06 in 10.0 mi NW 6.9 mph - N/A   Clear
7:55 PM 60.1 °F - 41.2 °F 50% 30.06 in 10.0 mi NW 5.8 mph - N/A   Clear
8:15 PM 58.6 °F - 41.7 °F 53% 30.07 in 10.0 mi NW 8.1 mph - N/A   Clear
8:35 PM 57.6 °F - 42.1 °F 56% 30.08 in 10.0 mi NW 5.8 mph - N/A   Clear
8:55 PM 56.5 °F - 42.3 °F 59% 30.08 in 10.0 mi NW 5.8 mph - N/A   Clear
9:15 PM 55.9 °F - 42.3 °F 60% 30.08 in 10.0 mi NNW 3.5 mph - N/A   Clear
9:35 PM 55.0 °F - 42.3 °F 62% 30.09 in 10.0 mi NNW 3.5 mph - N/A   Clear
9:55 PM 54.5 °F - 42.3 °F 63% 30.09 in 10.0 mi NNW 3.5 mph - N/A   Clear
10:15 PM 54.0 °F - 42.1 °F 64% 30.10 in 10.0 mi NNW 3.5 mph - N/A   Clear
10:35 PM 54.0 °F - 42.3 °F 65% 30.10 in 10.0 mi NNW 3.5 mph - N/A   Clear
10:55 PM 53.2 °F - 42.4 °F 67% 30.09 in 10.0 mi Calm Calm - N/A   Clear
11:15 PM 52.3 °F - 42.8 °F 70% 30.10 in 10.0 mi Calm Calm - N/A   Clear
11:35 PM 52.2 °F - 42.8 °F 70% 30.09 in 10.0 mi Calm Calm - N/A   Clear
11:55 PM 52.3 °F - 42.8 °F 70% 30.09 in 10.0 mi North 3.5 mph - N/A   Clear